Flag for Italy Weather past 2 weeks in Firenze, Italy

Now
39 °F

Passing clouds.


Feels Like: 35 °F
Forecast: 27 / 49 °F
Wind: 6 mph from East

Location: Florence / Peretola

Current Time: Feb 1, 2015 at 8:56:26 PM

Latest Report: Feb 1, 2015 at 8:20 PM


Visibility: N/A

Pressure: 29.39 "Hg

Humidity: 87%

Dew point: 36 °F

Location of FirenzeLocation

Historic Weather in Firenze — Graph

°F

Firenze temperature yesterday

Maximum temperature yesterday: 46 °F (at 2:20 PM)
Minimum temperature yesterday: 28 °F (at 6:20 AM)
Average temperature yesterday: 36 °F

Past Weeks' High & Low Weather Summary

 TemperatureHumidityPressure
High55 °F (Jan 18, 12:50 PM)100% (Jan 18, 1:50 AM)30.21 "Hg (Jan 18, 1:50 AM)
Low25 °F (Jan 28, 5:20 AM)24% (Jan 28, 1:20 PM)28.82 "Hg (Jan 30, 5:50 AM)
Average43 °F75%29.73 "Hg
* Reported Jan 17 7:20 PM — Feb 1 7:50 PM, Firenze, Weather by CustomWeather, © 2014

Note: Actual official high and low records may vary slightly from our data, if they occured in-between our weather recording intervals... More about our weather records

Advertising

Firenze weather history for previous 24 hours

 ConditionsComfort  
Time TempWeatherWind HumidityBarometerVisibility
7:50 PM
Feb 1
37 °FClear.6 mph93%29.36 "Hg10 mi
7:20 PM39 °FClear.7 mph87%29.36 "Hg10 mi
6:50 PM37 °FClear.5 mph87%29.36 "Hg10 mi
6:20 PM37 °FClear.6 mph87%29.36 "Hg10 mi
5:50 PM41 °FClear.3 mph81%29.33 "Hg10 mi
5:20 PM45 °FSunny.1 mph71%29.33 "Hg10 mi
4:50 PM46 °FPassing clouds.2 mph71%29.33 "HgN/A
4:20 PM46 °FScattered clouds.2 mph71%29.30 "HgN/A
3:50 PM46 °FScattered clouds.2 mph71%29.30 "HgN/A
3:20 PM46 °FScattered clouds.5 mph66%29.30 "HgN/A
2:50 PM46 °FScattered clouds.6 mph71%29.30 "HgN/A
2:20 PM46 °FScattered clouds.6 mph66%29.30 "HgN/A
1:50 PM46 °FScattered clouds.5 mph66%29.27 "HgN/A
1:20 PM46 °FScattered clouds.3 mph71%29.27 "HgN/A
12:50 PM45 °FScattered clouds.2 mph76%29.27 "HgN/A
12:20 PM45 °FScattered clouds.2 mph76%29.27 "HgN/A
11:50 AM45 °FPassing clouds.2 mph76%29.27 "HgN/A
11:20 AM41 °FScattered clouds.1 mph87%29.27 "HgN/A
10:50 AM41 °FBroken clouds.3 mph87%29.27 "HgN/A
10:20 AM39 °FBroken clouds.3 mph93%29.27 "HgN/A
9:50 AM39 °FBroken clouds.7 mph93%29.24 "HgN/A
9:20 AM39 °FPartly sunny.7 mph93%29.21 "HgN/A
8:50 AM39 °FBroken clouds.3 mph93%29.21 "HgN/A
8:20 AM39 °FLight rain. Mostly cloudy.5 mph93%29.21 "HgN/A
7:50 AM37 °FLight rain. More clouds than sun.3 mph100%29.21 "Hg5 mi
7:20 AM37 °FRain. Fog.7 mph100%29.21 "Hg2 mi
6:50 AM37 °FRain. Fog.5 mph100%29.21 "Hg2 mi
6:20 AM37 °FRain. Fog.7 mph100%29.18 "Hg2 mi
5:50 AM37 °FPartly cloudy.1 mph100%29.18 "Hg4 mi
5:20 AM37 °FFog.3 mph93%29.18 "Hg3 mi
4:50 AM37 °FFog.2 mph93%29.15 "Hg3 mi
3:50 AM37 °FPassing clouds.1 mph93%29.15 "Hg4 mi
3:20 AM37 °FPassing clouds.1 mph100%29.15 "Hg4 mi
2:50 AM37 °FPassing clouds.3 mph100%29.18 "Hg4 mi
2:20 AM37 °FPassing clouds.1 mph100%29.15 "Hg4 mi
1:50 AM39 °FPassing clouds.6 mph93%29.18 "Hg4 mi
1:20 AM39 °FPassing clouds.3 mph100%29.15 "Hg5 mi
12:50 AM37 °FLight rain. Fog.2 mph100%29.15 "Hg3 mi
12:20 AM37 °FLight rain. Fog.5 mph100%29.18 "Hg2 mi
11:50 PM
Jan 31
37 °FPassing clouds.7 mph100%29.18 "Hg4 mi
11:20 PM36 °FPassing clouds.2 mph93%29.15 "Hg4 mi
10:50 PM36 °FPassing clouds.5 mph93%29.15 "Hg4 mi
10:20 PM37 °FPassing clouds.2 mph93%29.15 "Hg4 mi
9:50 PM36 °FPassing clouds.5 mph100%29.15 "Hg4 mi
9:20 PM37 °FPassing clouds.3 mph100%29.15 "Hg5 mi
8:50 PM37 °FPassing clouds.2 mph93%29.15 "HgN/A
8:20 PM36 °FPassing clouds.5 mph93%29.15 "HgN/A
Weather by CustomWeather, © 2014

See weather overviewHow to use our weather pages